Preview of NWS' New Version of Forecast
This preview is not operational and should not be used for support decisions.

Regional Weather Roundup (RWR)

Issued by National Weather Service (NWS)

                            
104 
ASUS42 KFFC 200310
RWRGA 
WEATHER ROUNDUP FOR GEORGIA
NATIONAL WEATHER SERVICE PEACHTREE CITY GA
1000 PM EST MON FEB 19 2018

NOTE: "FAIR" INDICATES FEW OR NO CLOUDS BELOW 12,000 FEET WITH NO
SIGNIFICANT WEATHER AND/OR OBSTRUCTIONS TO VISIBILITY. 

* = USE WITH CAUTION. THE STATIONS MARKED WITH AN ASTERISK MAY NOT
REPORT WEATHER SUCH AS PRECIPITATION, FOG, OR THUNDER AND ARE NOT 
QUALITY CONTROLLED BY NWS.

THE REMARK "TC" DENOTES TEMPERATURE READING IN DEGREES CELSIUS.

GAZ001>058-200400-
NORTH GEORGIA
  
CITY           SKY/WX    TMP DP  RH WIND       PRES   REMARKS
ATLANTA        MOCLDY    61  61 100 E12       30.32R                  
ATHENS         CLOUDY    58  58 100 NE8       30.36R FOG              
CHAMBLEE       CLOUDY    58  57  97 MISG      30.33R FOG              
PEACHTREE CITY CLOUDY    70  58  65 SE3       30.31R                  
ROME           CLOUDY    61  59  93 SE6       30.29R                  
WEST ATLANTA   CLOUDY    61  60  97 NE8       30.32R                  
GAINESVILLE    FOG       55  55 100 E9        30.37R VSB 1/4          
CARTERSVILLE   CLOUDY    59  58  96 E6        30.32R                  

  
CITY           SKY/WX    TMP DP  RH WIND       PRES   REMARKS
DALTON*        MOCLDY    59  57  94 SW3       30.31R                  
LAWRENCEVILLE* FOG       55  55 100 NE7         N/A  VSB 3/4          
MARIETTA       CLOUDY    57  57 100 E6        30.34R FOG              
KENNESAW*      CLOUDY    58  57  97 VRB5      30.34R FOG              
CANTON*        CLOUDY    59  59 100 E3        30.35S FOG              
BLAIRSVILLE*   MOCLDY    61  56  85 SE5       30.36R                  
$$

GAZ059>098-102>109-200400-
CENTRAL GEORGIA
  
CITY           SKY/WX    TMP DP  RH WIND       PRES   REMARKS
AUGUSTA-BUSH   FAIR      63  61  93 SE5       30.34R                  
AUGUSTA-DANIEL FAIR      68  62  81 SE6       30.35R                  
COLUMBUS       FAIR      70  58  65 SE6       30.27R                  
MACON          FAIR      63  57  81 CALM      30.31R                  
ROBINS AFB     PTCLDY    63  58  83 CALM      30.30R                  

  
CITY           SKY/WX    TMP DP  RH WIND       PRES   REMARKS
LAGRANGE*      MOCLDY    70  60  70 SE3       30.29R                  
SYLVANIA*      FAIR      66  65  96 SE3       30.37R                  
MILLEDGEVILLE* MOCLDY    61  59  94 CALM      30.32S                  
$$

GAZ099>101-110>166-200400-
SOUTH GEORGIA
  
CITY           SKY/WX    TMP DP  RH WIND       PRES   REMARKS
SAVANNAH       FAIR      63  62  97 E3        30.37R FOG              
VALDOSTA       FAIR      69  60  73 SE6       30.30R                  
ALMA           FAIR      68  63  84 SE7       30.33R                  
ST SIMONS      FAIR      65  64  97 SE6       30.35R                  
FT STEWART     FAIR      63  62  97 E3        30.34R                  
ALBANY         FAIR      65  61  87 CALM      30.31R                  
HUNTER AFB     FOG       65  62  92 E6        30.34S VSB 3/4          
MOODY AFB      FAIR      69  62  77 SE7       30.30R                  
BRUNSWICK      FAIR      63  59  88 E3        30.36S FOG              

  
CITY           SKY/WX    TMP DP  RH WIND       PRES   REMARKS
BAINBRIDGE*    FAIR      68  63  83 CALM      30.28S                  
MOULTRIE*      FAIR      66  61  82 CALM      30.31R                  
VIDALIA*       FAIR      68  63  83 SE5       30.34S                  
WAYCROSS*      FAIR      67  64  91 SE6       30.33S                  
DOUGLAS*       FAIR      68  61  77 SE5       30.34R                  
$$